Weather reports worldwide

Advertisment
Levens Hall, United Kingdom (99172): temperature & dewpoint: 25.10.2020 04:00:00 - 31.10.2020 04:00:00 (GMT)Levens Hall, United Kingdom (99172): precipitation: 25.10.2020 04:00:00 - 31.10.2020 04:00:00 (GMT)
Date & Time tt [°C] td [°C] rr [mm]
31.10.2020 04:00:00 11,8 11,0 -
31.10.2020 03:00:00 10,4 9,5 0,0
31.10.2020 02:00:00 10,3 9,0 0,0
31.10.2020 01:00:00 6,0 5,8 0,0
31.10.2020 00:00:00 3,9 3,4 0,0
30.10.2020 23:00:00 4,1 3,8 0,0
30.10.2020 22:00:00 4,4 4,1 0,0
30.10.2020 21:00:00 4,6 4,2 0,0
30.10.2020 20:00:00 5,3 4,9 0,0
30.10.2020 19:00:00 6,1 5,2 0,0
30.10.2020 18:00:00 8,0 6,0 0,0
30.10.2020 17:00:00 9,7 6,9 0,0
30.10.2020 16:00:00 10,5 7,7 0,0
30.10.2020 15:00:00 12,1 6,6 0,0
30.10.2020 14:00:00 12,8 6,6 0,0
30.10.2020 13:00:00 12,8 7,3 0,0
30.10.2020 12:00:00 13,1 9,7 0,0
30.10.2020 11:00:00 12,9 10,0 0,0
30.10.2020 10:00:00 12,5 10,6 0,0
30.10.2020 09:00:00 12,1 11,5 0,0
30.10.2020 08:00:00 12,1 11,3 0,0
30.10.2020 07:00:00 12,9 11,1 0,0
30.10.2020 06:00:00 13,5 12,1 0,0
30.10.2020 05:00:00 13,6 12,8 0,0
30.10.2020 04:00:00 13,6 12,7 0,0
30.10.2020 03:00:00 13,5 12,6 0,0
30.10.2020 02:00:00 13,3 12,6 0,0
30.10.2020 01:00:00 13,2 12,4 0,0
30.10.2020 00:00:00 13,0 12,4 0,0
29.10.2020 23:00:00 12,9 12,5 0,0
29.10.2020 22:00:00 12,8 12,3 0,0
29.10.2020 21:00:00 12,7 12,5 0,0
29.10.2020 20:00:00 12,8 12,4 0,0
29.10.2020 19:00:00 12,6 12,4 0,0
29.10.2020 18:00:00 12,8 12,2 0,0
29.10.2020 17:00:00 12,8 12,2 0,0
29.10.2020 16:00:00 12,5 12,3 0,0
29.10.2020 15:00:00 12,5 12,2 0,0
29.10.2020 14:00:00 12,4 12,2 0,0
29.10.2020 13:00:00 11,6 11,2 0,0
29.10.2020 12:00:00 11,4 10,8 0,0
29.10.2020 11:00:00 10,0 9,4 0,0
29.10.2020 10:00:00 9,7 9,1 0,0
29.10.2020 09:00:00 8,9 8,3 0,0
29.10.2020 08:00:00 9,2 8,6 0,0
29.10.2020 07:00:00 9,4 7,9 0,0
29.10.2020 06:00:00 9,1 7,0 0,0
29.10.2020 05:00:00 8,4 5,4 0,0
29.10.2020 04:00:00 8,3 5,3 0,0
29.10.2020 03:00:00 8,8 5,6 0,0
29.10.2020 02:00:00 9,2 5,4 0,0
29.10.2020 01:00:00 9,3 5,5 0,0
29.10.2020 00:00:00 9,7 5,7 0,0
28.10.2020 23:00:00 9,4 6,6 0,0
28.10.2020 22:00:00 9,0 6,9 0,0
28.10.2020 21:00:00 9,0 5,9 0,0
28.10.2020 20:00:00 8,6 5,1 0,0
28.10.2020 19:00:00 9,0 5,0 0,0
28.10.2020 18:00:00 8,9 5,2 0,0
28.10.2020 17:00:00 8,7 5,0 0,0
28.10.2020 16:00:00 8,3 5,0 0,0
28.10.2020 15:00:00 10,0 5,6 0,0
28.10.2020 14:00:00 11,0 5,4 0,0
28.10.2020 13:00:00 10,2 5,1 0,0
28.10.2020 12:00:00 11,8 7,5 0,0
28.10.2020 11:00:00 11,0 5,7 0,0
28.10.2020 10:00:00 9,9 5,9 0,0
28.10.2020 09:00:00 9,7 5,7 0,0
28.10.2020 08:00:00 9,2 5,5 0,0
28.10.2020 07:00:00 9,0 5,7 0,0
28.10.2020 06:00:00 8,7 6,3 0,0
28.10.2020 05:00:00 8,6 6,6 0,0
28.10.2020 04:00:00 7,4 6,3 0,0
28.10.2020 03:00:00 7,7 6,3 0,0
28.10.2020 02:00:00 7,8 6,2 0,0
28.10.2020 01:00:00 8,5 6,0 0,0
28.10.2020 00:00:00 10,1 5,9 0,0
27.10.2020 23:00:00 9,8 5,1 0,0
27.10.2020 22:00:00 9,1 5,0 0,0
27.10.2020 21:00:00 8,7 4,5 0,0
27.10.2020 20:00:00 9,1 5,3 0,0
27.10.2020 19:00:00 9,5 5,6 0,0
27.10.2020 18:00:00 9,2 5,4 0,0
27.10.2020 17:00:00 8,9 7,9 0,0
27.10.2020 16:00:00 9,4 7,4 0,0
27.10.2020 15:00:00 10,6 9,2 0,0
27.10.2020 14:00:00 10,2 9,7 0,0
27.10.2020 13:00:00 9,5 9,1 0,0
27.10.2020 12:00:00 9,2 8,5 0,0
27.10.2020 11:00:00 8,6 8,0 0,0
27.10.2020 10:00:00 8,1 7,5 0,0
27.10.2020 09:00:00 8,2 7,0 0,0
27.10.2020 08:00:00 7,9 6,1 0,0
27.10.2020 07:00:00 7,5 6,6 0,0
27.10.2020 06:00:00 7,7 7,0 0,0
27.10.2020 05:00:00 7,4 6,5 0,0
27.10.2020 04:00:00 7,3 6,7 0,0
27.10.2020 03:00:00 6,6 6,0 0,0
27.10.2020 02:00:00 8,5 6,7 0,0
27.10.2020 01:00:00 7,7 5,8 0,0
27.10.2020 00:00:00 8,4 6,4 0,0
26.10.2020 23:00:00 9,2 6,6 0,0
26.10.2020 22:00:00 9,3 7,5 0,0
26.10.2020 21:00:00 9,4 6,9 0,0
26.10.2020 20:00:00 9,5 7,0 0,0
26.10.2020 19:00:00 8,9 5,8 0,0
26.10.2020 18:00:00 9,6 7,3 0,0
26.10.2020 17:00:00 10,4 6,7 0,0
26.10.2020 16:00:00 10,2 6,6 0,0
26.10.2020 15:00:00 10,4 7,7 0,0
26.10.2020 14:00:00 10,2 6,4 0,0
26.10.2020 13:00:00 9,4 7,6 0,0
26.10.2020 12:00:00 11,6 8,6 0,0
26.10.2020 11:00:00 10,3 8,3 0,0
26.10.2020 10:00:00 9,6 8,4 0,0
26.10.2020 09:00:00 9,5 8,0 0,0
26.10.2020 08:00:00 9,3 8,3 0,0
26.10.2020 07:00:00 9,1 8,6 0,0
26.10.2020 06:00:00 7,9 7,4 0,0
26.10.2020 05:00:00 8,2 6,9 0,0
26.10.2020 04:00:00 8,1 6,4 0,0
26.10.2020 03:00:00 7,9 6,2 0,0
26.10.2020 02:00:00 8,4 6,4 0,0
26.10.2020 01:00:00 8,3 6,4 0,0
26.10.2020 00:00:00 8,6 6,3 0,0
25.10.2020 23:00:00 8,6 5,9 0,0
25.10.2020 22:00:00 7,8 5,1 0,0
25.10.2020 21:00:00 7,4 5,2 0,0
25.10.2020 20:00:00 8,3 5,2 0,0
25.10.2020 19:00:00 8,1 5,2 0,0
25.10.2020 18:00:00 8,7 5,4 0,0
25.10.2020 17:00:00 9,4 6,0 0,0
25.10.2020 16:00:00 10,7 6,5 0,0
25.10.2020 15:00:00 11,0 6,6 0,0
25.10.2020 14:00:00 11,2 6,8 0,0
25.10.2020 13:00:00 11,2 7,2 0,0
25.10.2020 12:00:00 10,3 7,2 0,0
25.10.2020 11:00:00 10,5 7,9 0,0
25.10.2020 10:00:00 8,9 6,8 0,0
25.10.2020 09:00:00 8,5 6,6 0,0
25.10.2020 08:00:00 8,1 5,8 0,0
25.10.2020 07:00:00 7,3 5,6 0,0
25.10.2020 06:00:00 7,7 5,9 0,0
25.10.2020 05:00:00 8,0 6,0 0,0
25.10.2020 04:00:00 7,9 5,8 0,0

tt = temperature
td = dewpoint
rr = precipitation

Next stations